This is the latest recevied weather packets stored in our database for station/object HB9HUT-13. If no packets are shown the sender has not sent any weather packets the latest 10 day(s).
| Time | Temp. | Humidity | Pressure | Rain* | Wind** | Luminosity | Snow |
|---|---|---|---|---|---|---|---|
| 1778246394 | 27.78° C | 43% | 844.5 hPa | - | - | - | - |
| 1778245491 | 27.78° C | 44% | 844.6 hPa | - | - | - | - |
| 1778244588 | 27.22° C | 45% | 844.6 hPa | - | - | - | - |
| 1778243685 | 27.22° C | 45% | 844.7 hPa | - | - | - | - |
| 1778243685 | 27.22° C | 45% | 844.7 hPa | - | - | - | - |
| 1778242782 | 26.67° C | 45% | 844.8 hPa | - | - | - | - |
| 1778241879 | 26.11° C | 44% | 844.7 hPa | - | - | - | - |
| 1778240976 | 26.11° C | 44% | 844.8 hPa | - | - | - | - |
| 1778240073 | 26.11° C | 45% | 844.6 hPa | - | - | - | - |
| 1778239170 | 25.56° C | 45% | 844.8 hPa | - | - | - | - |
| 1778239170 | 25.56° C | 45% | 844.8 hPa | - | - | - | - |
| 1778238267 | 25.56° C | 45% | 844.7 hPa | - | - | - | - |
| 1778237364 | 25° C | 45% | 844.8 hPa | - | - | - | - |
| 1778236461 | 24.44° C | 46% | 844.9 hPa | - | - | - | - |
| 1778235558 | 23.89° C | 45% | 844.8 hPa | - | - | - | - |
| 1778234655 | 23.33° C | 45% | 844.9 hPa | - | - | - | - |
| 1778233752 | 23.33° C | 46% | 844.9 hPa | - | - | - | - |
| 1778233752 | 23.33° C | 46% | 844.9 hPa | - | - | - | - |
| 1778232849 | 22.22° C | 46% | 844.9 hPa | - | - | - | - |
| 1778231946 | 21.67° C | 46% | 844.9 hPa | - | - | - | - |
| 1778231043 | 21.11° C | 46% | 844.9 hPa | - | - | - | - |
| 1778230140 | 20° C | 46% | 844.8 hPa | - | - | - | - |
| 1778229237 | 19.44° C | 46% | 844.7 hPa | - | - | - | - |
| 1778228334 | 18.33° C | 47% | 844.8 hPa | - | - | - | - |
| 1778227431 | 17.22° C | 47% | 844.8 hPa | - | - | - | - |
* Rain since midnight (hover to see other rain measurements)
** Current wind speed in m/s (hover to see current wind gust speed)